Lapse_Rate
4.5 4.1 3.8 3.8 3.8 3.9 4.1 4.0 3.8 4.3 4.3 4.5 4.6 4.1 3.6 3.9 4.0 4.7 4.9 5.4 5.2 5.8 5.9 6.2 6.7 6.7 7.4 7.3 7.8 7.7 6.9 7.1 8.3 8.7 8.5 8.3 7.8 7.3 6.5 6.9 7.0 6.5 6.5 7.0 6.2 6.9 7.2
5.5 5.7 5.6 4.8 4.2 4.0 3.9 3.9 3.7 3.7 4.0 3.8 4.1 4.4 3.9 3.4 3.6 4.0 4.4 5.2 5.4 5.1 5.7 6.0 6.7 6.9 8.6 6.8 8.4 7.4 6.7 6.4 8.6 8.7 8.5 8.6 7.9 8.0 7.2 6.9 6.6 6.9 6.5 6.8 6.8 7.0 7.2
6.7 6.9 6.3 6.8 6.6 5.9 5.5 4.9 4.3 4.3 4.7 4.5 3.9 3.5 3.7 3.4 3.5 3.7 4.0 4.7 5.5 4.8 5.4 5.9 6.6 7.8 7.9 7.8 7.9 7.5 6.8 7.0 7.6 7.7 8.3 8.4 8.5 7.0 7.7 6.5 7.4 6.6 6.5 6.5 6.7 6.8 6.7
6.8 7.1 7.2 7.1 7.1 7.0 6.6 6.1 5.8 5.5 4.8 4.3 4.0 4.1 3.7 3.6 3.1 3.4 3.6 3.5 4.9 4.8 4.8 5.7 6.2 7.8 7.6 7.5 7.0 6.8 7.5 7.3 7.5 8.0 8.4 8.3 7.2 7.2 7.4 7.7 7.0 6.5 6.5 6.5 6.5 6.7 6.6
6.4 6.4 6.4 6.4 6.6 6.7 7.0 7.0 6.6 5.9 5.6 5.6 4.8 4.0 3.6 3.5 3.4 3.1 2.9 3.4 3.8 4.9 5.2 5.7 7.0 7.7 7.2 7.0 6.9 7.6 8.2 8.3 7.7 7.8 8.1 7.6 6.9 7.4 7.2 6.5 6.5 6.5 6.5 6.5 6.5 6.7 6.5
7.2 6.6 6.4 7.0 6.9 7.0 6.7 6.4 6.5 7.0 6.8 6.1 5.6 4.9 4.0 3.6 3.4 3.2 3.1 3.4 4.5 5.4 6.8 7.7 8.0 7.5 7.6 7.3 7.4 7.7 7.9 8.3 8.0 8.2 7.7 7.8 6.6 6.5 6.5 6.5 6.5 6.5 6.5 6.5 6.5 6.5 6.5
8.9 8.5 7.4 7.7 7.1 7.4 7.1 6.5 6.4 6.2 6.5 6.7 6.3 5.3 4.4 4.0 4.1 3.4 3.7 6.2 7.1 7.5 7.4 7.5 7.5 7.5 6.5 7.0 6.8 7.1 7.8 7.9 8.2 7.7 6.5 7.1 6.5 6.5 6.5 6.5 6.5 6.5 6.5 6.5 6.5 6.5 6.5
8.3 8.4 8.4 9.1 8.4 8.2 8.1 7.1 6.1 6.4 6.6 5.8 6.2 6.0 5.2 4.1 4.0 3.7 4.2 6.4 6.8 6.2 6.9 6.5 6.4 7.6 7.1 7.3 7.4 7.3 7.8 7.5 7.1 6.5 6.6 6.5 6.5 6.5 6.5 6.5 6.5 6.5 6.5 6.5 6.5 6.5 6.5
8.5 8.6 8.9 8.6 8.8 8.8 8.4 8.5 8.1 8.0 7.3 5.8 5.9 5.8 5.9 4.8 3.7 4.1 5.0 5.8 5.0 6.1 6.9 7.0 6.1 7.7 7.1 7.6 7.2 7.4 7.7 7.6 6.6 6.5 6.5 6.5 6.5 6.5 6.5 6.5 6.5 6.5 6.5 6.5 6.5 6.5 6.5
9.2 9.2 9.0 8.9 8.7 8.7 8.7 8.8 9.0 8.3 7.9 6.5 6.0 6.4 5.7 5.0 6.1 5.0 5.8 5.4 4.9 6.2 6.5 6.5 6.8 7.5 7.2 7.8 6.7 7.5 7.4 7.6 6.6 6.5 6.5 6.5 6.6 6.5 6.5 6.5 6.5 6.5 6.5 6.5 6.5 6.5 6.5
9.4 9.4 9.5 9.3 9.0 8.9 8.7 8.5 8.7 8.2 7.9 7.4 6.5 5.8 5.7 5.7 7.5 6.7 6.0 4.8 5.2 6.9 6.5 6.5 6.7 7.3 7.6 7.1 7.2 7.0 6.6 7.0 6.5 6.5 6.5 6.5 6.5 6.5 6.5 6.5 6.5 6.5 6.5 6.5 6.5 6.5 6.5
9.6 9.5 9.4 9.6 9.5 8.8 8.5 8.7 8.5 8.4 8.3 8.2 7.2 6.3 5.8 6.0 6.3 6.9 5.3 5.3 6.5 6.5 6.5 6.5 6.8 6.5 6.5 6.9 6.9 7.4 7.3 7.3 7.3 6.5 6.5 6.5 7.0 6.5 6.5 6.5 6.5 6.5 6.5 6.5 6.5 6.5 6.5
9.5 9.5 9.5 9.5 9.5 9.5 8.7 8.9 8.4 8.6 8.6 7.7 7.7 6.6 6.4 6.5 8.0 5.9 6.7 7.5 6.5 6.5 6.5 6.5 6.5 6.5 6.5 6.5 6.5 6.5 6.5 6.5 6.5 6.5 6.5 6.5 6.5 6.5 6.7 6.5 6.5 6.5 6.5 6.5 6.5 6.5 6.5
9.5 9.5 9.5 9.5 9.5 9.5 9.6 9.0 8.7 9.1 8.7 7.8 7.5 6.1 7.0 7.2 7.2 6.5 7.5 6.6 6.5 6.5 6.5 6.5 6.5 6.5 6.5 6.5 6.5 6.5 6.5 6.5 6.5 6.5 6.5 6.5 6.5 6.5 6.5 6.5 6.5 6.5 6.5 6.5 6.5 6.5 6.5
9.6 9.5 9.4 9.4 9.5 9.5 9.6 9.7 9.1 8.9 8.7 7.7 7.2 7.0 7.8 6.6 6.4 6.8 7.8 6.5 6.5 6.5 6.5 6.5 6.5 6.5 6.5 6.5 6.5 6.5 6.5 6.5 6.5 6.5 6.5 6.5 6.5 6.5 6.5 6.5 6.5 6.5 6.5 6.5 6.5 6.5 6.5
9.6 9.5 9.5 9.5 9.4 9.3 9.4 9.5 9.6 9.4 8.9 8.2 7.0 7.7 7.6 7.4 6.9 6.0 6.7 6.5 6.5 6.5 6.5 6.5 6.5 6.5 6.5 6.5 6.5 6.5 6.5 6.5 6.5 6.5 6.5 6.5 6.5 6.5 6.5 6.6 6.6 6.5 6.5 6.5 6.5 6.5 6.5
9.6 9.6 9.6 9.5 9.3 9.4 9.4 9.3 9.5 9.5 9.6 8.5 7.3 7.6 8.3 7.7 8.1 6.7 6.5 6.5 6.5 6.9 6.8 6.5 6.5 6.5 6.5 6.5 6.5 6.5 6.5 6.5 6.5 6.5 6.4 6.5 6.5 6.5 6.5 6.5 6.5 6.5 6.5 6.5 6.5 6.5 6.5
9.6 9.5 9.6 9.6 9.6 9.4 9.3 9.4 9.3 9.5 9.5 8.5 6.7 6.5 7.5 7.3 6.6 6.5 6.5 6.5 6.5 6.5 7.0 6.5 6.5 6.5 6.5 6.5 6.5 6.5 6.5 6.5 6.8 6.5 6.5 6.5 6.5 6.5 6.5 6.5 6.5 6.5 6.5 6.5 6.5 6.5 6.5
9.2 9.2 9.3 9.4 9.6 9.6 9.4 9.2 9.2 9.3 9.5 7.6 7.1 7.3 7.4 8.5 6.5 6.5 6.5 6.5 6.6 6.5 6.5 6.5 6.5 6.5 6.5 6.5 6.5 6.5 6.5 6.6 6.9 6.5 6.5 6.5 6.5 6.5 6.5 6.5 6.5 6.5 6.5 6.5 6.5 6.5 6.5
9.3 9.4 9.2 9.3 9.4 9.5 9.7 9.4 9.3 9.3 9.4 7.9 7.0 6.5 7.4 6.6 7.2 6.5 6.5 6.5 6.5 6.9 6.5 6.6 6.5 6.5 6.5 6.5 6.5 6.5 6.5 6.5 6.8 6.6 6.0 6.5 6.5 6.5 6.5 6.5 6.5 6.5 6.5 6.5 6.5 6.5 6.5
9.5 9.3 9.2 9.2 9.3 9.4 9.4 9.6 9.5 9.3 9.2 8.2 6.9 6.7 6.9 6.5 6.5 6.5 6.5 6.5 6.5 6.5 6.6 6.8 6.5 6.5 6.5 6.5 6.5 6.5 6.5 6.5 6.6 6.7 6.5 6.5 6.5 6.5 6.5 6.5 6.5 6.5 6.5 6.5 6.5 6.5 6.5
9.3 8.8 8.8 9.2 9.2 9.3 9.2 9.4 9.6 9.2 9.0 8.3 6.9 6.9 7.3 7.0 7.0 6.5 6.5 6.5 6.5 6.5 6.5 6.5 6.5 6.5 6.5 6.5 6.5 6.5 6.5 6.5 6.5 6.5 6.5 6.5 6.5 6.5 6.5 6.5 6.5 6.5 6.5 6.5 6.5 6.5 6.5
9.0 8.7 8.8 9.0 9.2 9.2 9.2 9.2 9.5 9.5 8.9 8.0 7.7 7.5 7.0 6.8 6.5 6.5 6.5 6.5 6.5 6.5 6.7 6.6 6.5 6.5 6.5 6.5 6.2 6.6 6.8 6.8 6.6 6.5 6.5 6.5 6.5 6.5 6.5 6.5 6.5 6.5 6.5 6.5 6.5 6.5 6.5
9.2 9.2 9.2 9.1 9.3 9.4 9.3 9.0 9.2 9.5 9.3 8.1 8.1 7.8 7.0 6.5 6.5 6.5 6.5 6.5 6.5 6.5 6.5 6.5 6.8 6.5 6.6 4.5 6.3 7.1 7.0 6.8 6.6 6.5 6.6 6.5 6.5 6.5 6.5 6.5 6.5 6.5 6.5 6.5 6.5 6.5 6.5
9.2 9.2 9.4 9.5 9.3 9.3 9.0 8.9 9.1 9.4 9.5 8.3 8.1 7.6 7.2 6.5 6.6 6.6 6.5 6.5 6.7 6.8 6.5 6.5 6.8 6.6 5.8 5.8 6.5 6.5 6.5 6.5 6.5 6.5 6.5 6.5 6.5 6.5 6.5 6.5 6.5 6.5 6.5 6.5 6.5 6.5 6.5
9.2 9.5 9.4 9.3 9.3 9.2 9.2 8.6 8.9 9.4 9.5 8.7 7.9 8.1 7.8 6.6 6.6 7.3 6.6 6.7 6.5 6.5 6.5 6.5 5.9 6.2 6.0 6.5 6.5 6.5 6.5 6.5 6.5 6.5 6.5 6.5 6.5 6.5 6.5 6.5 6.5 6.5 6.5 6.8 6.5 6.5 6.5
9.4 9.3 9.2 9.3 9.2 9.3 9.3 8.7 8.6 9.4 9.5 8.7 8.0 8.2 8.0 6.9 7.7 7.5 6.6 6.6 7.0 6.7 6.5 6.5 6.8 6.7 7.0 6.5 6.5 6.5 6.5 6.5 6.5 6.5 6.5 6.5 6.5 6.5 6.5 6.5 6.5 6.5 6.6 6.9 6.5 6.5 6.8
9.2 9.3 9.3 9.3 9.3 9.3 9.3 8.9 8.6 9.4 9.4 8.8 7.9 8.0 7.9 7.3 7.7 8.1 7.6 6.9 6.8 6.8 6.5 6.7 6.7 6.6 6.5 6.5 6.5 6.5 6.5 6.5 6.5 6.5 6.5 6.5 6.5 6.5 6.5 6.5 6.5 6.8 6.7 6.5 6.6 7.1 7.1
9.3 9.3 9.5 9.4 9.4 9.4 9.3 8.7 8.8 9.3 9.3 9.5 7.8 8.3 7.9 6.7 7.2 6.9 6.0 6.5 6.1 5.2 6.1 6.5 6.8 6.5 6.6 6.5 6.5 6.5 6.5 6.5 6.5 6.5 6.5 6.5 6.5 6.5 6.5 6.5 6.6 7.1 6.9 6.7 7.1 7.2 7.3
Wind_Speed
19 19 19 19 19 20 20 20 20 21 21 22 21 19 16 17 17 18 19 16 15 13 11 8 3 11 6 3 8 4 5 12 12 10 14 12 16 7 11 11 8 6 5 8 5 3 3
18 18 18 18 18 18 18 19 19 18 19 20 21 22 20 16 16 14 18 17 17 11 12 5 3 14 3 7 1 5 1 5 11 13 13 14 10 7 7 14 12 12 10 7 5 1 2
15 16 16 17 18 18 19 19 20 21 21 21 20 20 19 18 17 14 14 18 14 14 10 7 6 8 5 10 3 6 6 7 12 15 14 15 9 6 9 17 4 15 8 5 6 4 3
19 15 15 14 16 18 19 18 19 20 19 20 20 21 21 18 17 15 13 15 15 17 10 8 9 5 6 2 5 6 8 5 11 14 11 10 5 3 4 10 7 9 6 7 4 10 2
23 22 24 24 21 19 17 17 17 18 19 19 20 20 20 19 16 16 14 12 14 11 14 8 5 5 6 6 4 8 11 11 11 11 7 4 2 4 5 10 6 4 6 5 2 9 5
21 22 23 24 25 24 25 29 23 19 19 19 20 20 20 18 16 14 17 11 3 3 3 4 2 4 5 4 5 6 7 10 6 11 7 8 4 10 8 12 16 14 7 7 19 10 11
21 22 20 21 22 25 26 27 27 28 24 18 18 18 19 19 17 13 8 2 3 4 7 10 8 6 3 4 3 5 6 8 6 12 12 11 11 18 21 15 1 12 14 9 8 7 10
22 21 23 22 22 23 24 24 25 26 28 31 21 18 19 22 22 15 2 3 2 2 9 19 14 16 2 7 6 7 8 12 11 15 12 8 19 18 11 11 5 11 14 10 3 6 9
22 22 20 22 23 23 22 24 24 25 26 31 27 25 19 22 29 2 3 6 1 2 5 9 10 14 6 10 8 14 13 7 15 18 17 18 15 11 11 10 10 8 12 9 2 8 5
20 20 21 23 25 24 21 24 25 25 26 26 27 26 26 21 3 5 3 4 3 3 4 6 6 7 9 10 6 7 16 6 7 20 17 10 7 16 12 17 15 15 7 8 11 10 4
20 22 23 22 24 25 25 26 25 23 25 26 26 28 24 6 8 5 5 4 3 3 6 5 4 2 6 13 13 8 5 4 12 10 10 8 12 15 16 12 15 4 8 8 6 4 2
21 21 23 25 23 27 27 27 29 28 26 25 25 26 26 5 3 7 9 4 2 4 9 6 7 8 11 8 7 7 7 2 2 5 3 2 0 4 5 5 5 17 11 7 4 2 6
21 22 23 24 25 22 26 27 27 28 29 29 26 28 20 11 3 3 2 3 4 8 1 8 7 9 17 11 7 12 17 14 10 9 13 4 6 3 8 10 9 6 15 4 4 4 6
20 21 22 23 24 26 23 27 29 28 30 30 30 30 13 13 13 5 3 5 13 11 12 3 6 9 13 12 10 12 14 20 16 6 11 11 7 11 8 5 11 16 10 5 8 6 5
21 21 22 23 22 24 27 25 27 28 30 31 30 8 6 9 18 7 8 13 12 14 7 13 9 7 13 12 5 12 18 22 16 15 8 12 7 2 2 3 6 8 8 3 6 1 3
21 22 22 23 24 25 26 27 29 31 31 33 9 8 8 17 16 7 10 27 15 7 6 8 17 15 17 18 11 17 19 17 14 17 5 6 6 3 3 3 3 3 11 4 2 6 6
21 22 24 24 23 24 27 28 29 32 33 28 6 7 4 6 10 5 14 15 21 12 6 11 15 14 10 13 18 13 16 7 22 17 12 7 3 5 6 10 13 5 6 2 2 3 4
21 22 23 23 25 25 27 28 28 30 32 9 3 6 2 6 9 5 16 14 14 13 17 10 3 6 13 15 16 16 17 10 14 18 18 9 5 5 8 2 4 4 7 10 5 6 2
24 23 24 24 24 25 24 25 27 27 28 8 4 6 5 8 6 12 15 16 23 21 21 8 11 9 4 11 8 18 11 1 11 17 21 13 7 6 4 3 3 8 9 8 4 1 8
24 25 24 24 25 26 24 22 24 26 27 9 3 4 3 2 6 13 15 23 27 23 27 17 9 7 5 7 4 10 8 1 6 8 4 16 6 13 13 4 11 10 18 15 11 4 8
26 25 25 25 24 23 24 23 22 24 26 6 3 4 4 7 11 14 17 11 24 28 28 24 10 18 14 9 8 6 6 4 2 3 4 10 7 9 3 3 6 6 18 23 18 18 10
26 27 25 26 24 23 24 23 21 21 22 3 4 4 3 14 16 17 15 7 17 23 22 25 25 22 14 12 14 11 11 8 6 7 8 3 4 4 3 3 4 4 10 22 22 17 13
26 25 24 25 26 26 24 23 21 21 15 3 2 4 4 10 16 13 9 13 19 25 23 24 25 17 19 17 3 4 3 8 9 13 15 10 7 4 7 4 3 5 16 21 18 19 17
25 25 26 26 27 27 24 22 19 20 17 5 7 5 5 13 12 15 22 18 23 17 24 21 14 21 7 18 16 12 13 13 9 7 4 11 8 2 4 5 6 1 2 10 12 14 11
27 29 28 28 25 25 24 21 19 20 19 6 6 5 3 11 15 20 20 25 23 14 14 11 7 4 18 7 4 5 1 3 5 6 2 2 8 5 6 6 2 2 5 9 11 10 16
29 29 28 28 25 24 24 21 19 19 20 9 5 6 5 7 11 24 25 13 14 11 5 4 3 7 6 3 3 6 6 6 6 4 4 2 1 3 4 6 8 2 4 4 4 5 15
29 30 30 28 26 24 22 22 21 19 19 10 5 7 5 9 14 11 14 15 9 8 6 4 4 7 1 3 3 4 4 3 8 12 8 5 3 9 5 3 1 3 6 4 8 2 11
29 27 28 27 25 23 21 21 20 19 20 11 7 9 5 7 15 22 15 12 9 6 6 2 4 2 3 4 3 3 3 5 4 7 8 7 7 4 3 4 7 5 5 6 3 5 11
28 27 27 27 25 23 21 20 21 20 18 19 6 6 5 5 9 18 18 15 8 4 4 4 2 3 2 3 1 3 3 3 6 6 1 5 5 7 3 2 3 4 3 4 6 14 12
Wind_Direction
24 20 19 17 14 10 8 7 7 360 356 353 349 342 332 322 319 319 311 309 307 307 303 313 303 143 137 219 257 278 308 148 198 192 202 197 189 196 192 161 149 169 113 293 275 280 271
19 17 13 11 9 9 6 5 4 3 358 359 355 348 338 328 320 322 313 304 306 302 294 289 228 163 184 245 273 207 249 150 214 203 206 213 209 217 228 173 176 168 137 243 244 217 246
12 10 13 7 8 4 2 3 1 1 357 356 356 355 346 336 325 321 316 306 307 297 289 276 187 172 221 244 177 203 202 213 205 212 210 211 234 235 164 161 124 121 125 258 243 215 224
8 356 354 356 358 358 357 356 355 355 355 353 354 353 351 344 333 325 318 310 298 298 273 254 173 175 251 145 197 200 201 220 211 216 231 211 208 198 255 128 113 149 159 182 173 174 173
10 7 4 11 6 354 345 341 344 345 348 348 349 349 351 349 339 330 318 312 299 280 271 182 187 223 248 118 167 210 203 214 186 204 224 170 168 181 162 174 142 207 173 213 345 201 166
11 7 5 8 10 4 360 1 349 330 334 335 339 341 343 345 342 337 322 299 288 117 183 184 282 236 230 210 162 170 188 199 173 171 155 191 191 193 195 195 187 176 170 201 221 196 211
6 5 357 1 0 357 358 353 350 345 336 319 326 332 333 335 332 330 342 306 167 197 208 218 208 229 156 139 120 180 181 176 174 180 184 191 199 203 201 201 83 186 200 197 201 180 196
5 2 360 357 355 354 352 348 348 345 346 353 322 321 325 324 319 314 217 236 241 104 283 230 240 238 237 156 163 199 175 184 190 187 183 182 215 201 184 186 150 174 185 193 145 176 212
359 354 353 356 353 351 352 349 346 344 346 346 341 338 321 324 319 127 251 251 355 169 259 247 204 207 190 184 186 190 181 203 193 192 200 202 206 162 172 171 177 198 209 179 205 165 212
2 1 354 352 352 353 346 343 348 345 341 346 344 340 333 333 274 333 270 330 315 235 277 246 199 205 176 165 197 173 189 200 190 200 194 224 176 176 181 194 194 211 193 162 149 181 230
2 359 356 357 351 348 352 347 345 342 343 335 339 332 328 322 302 292 344 345 296 254 282 133 144 69 200 178 129 173 155 195 202 176 190 184 177 177 191 197 189 173 153 148 154 163 248
360 360 357 353 355 353 350 345 344 344 343 335 335 331 335 245 219 265 298 302 232 218 245 182 139 181 173 214 137 121 165 178 114 152 176 145 295 199 169 106 195 138 120 92 104 154 248
3 1 357 352 352 350 347 345 339 333 339 340 330 327 312 278 251 140 306 229 192 225 124 184 175 170 198 197 153 165 177 189 179 169 190 158 174 154 152 105 142 189 162 144 193 193 236
352 351 351 350 351 348 347 342 343 340 333 336 333 316 280 253 239 218 249 212 228 202 203 114 141 155 192 168 204 159 177 205 223 215 164 177 198 183 172 206 179 182 198 185 188 193 192
345 344 346 346 347 347 344 342 344 341 343 337 333 310 270 247 221 184 206 217 219 208 180 155 139 169 200 210 216 186 191 209 213 204 202 186 173 132 175 157 170 168 211 70 103 27 205
339 340 339 342 347 344 346 346 344 342 342 342 329 306 259 241 182 171 211 233 221 214 140 181 190 191 189 191 192 201 181 196 206 201 234 185 147 187 127 151 52 233 145 160 232 181 219
337 337 337 340 342 340 342 344 348 346 342 346 325 320 289 184 173 196 222 225 225 244 206 192 209 188 208 180 202 204 202 175 196 183 185 161 124 139 161 213 181 156 188 200 181 277 225
329 330 334 334 337 339 339 341 342 345 342 349 288 308 14 150 219 215 242 238 257 257 236 248 245 226 186 181 190 201 212 230 185 157 184 172 117 155 187 27 308 253 201 186 192 188 225
326 329 327 331 333 332 335 338 340 342 344 337 295 288 300 227 234 248 248 236 246 233 242 233 229 212 183 181 186 208 200 63 168 173 178 171 171 125 156 210 195 219 194 200 109 77 193
318 321 324 323 327 328 329 334 336 339 340 342 289 299 279 235 270 277 254 247 231 222 235 233 249 181 156 201 206 182 196 131 190 201 149 169 161 209 212 188 145 197 199 194 192 189 181
320 323 324 317 318 322 323 329 335 333 337 340 258 257 295 295 305 300 285 274 250 223 217 217 232 224 210 205 186 175 164 133 154 187 175 181 177 194 54 128 171 193 195 189 200 208 200
318 319 317 316 317 320 319 321 325 327 338 310 295 339 315 292 285 292 293 261 252 238 216 216 220 217 210 206 196 189 157 180 182 173 176 195 139 114 130 147 184 192 204 200 211 210 237
319 316 316 314 313 315 317 313 317 320 338 305 265 271 263 284 288 295 298 314 305 248 231 229 207 203 206 217 139 350 130 149 160 173 180 160 143 165 185 151 143 269 208 191 200 206 207
318 314 310 307 310 312 314 308 305 308 314 301 301 300 282 289 292 294 306 316 310 288 238 219 208 209 182 111 105 82 87 91 107 66 172 169 140 110 122 158 206 327 41 196 189 208 200
314 308 309 311 310 314 314 303 298 301 307 303 296 303 285 293 298 293 320 312 301 280 239 216 201 171 153 129 122 129 82 120 70 49 43 231 170 131 162 207 16 182 189 167 186 212 192
314 313 313 309 310 312 313 306 297 297 303 304 280 279 277 291 271 316 307 313 328 317 244 199 33 165 135 147 155 161 170 150 158 119 40 89 92 178 167 192 213 124 152 179 179 237 179
315 314 312 313 311 306 305 305 298 298 301 300 279 265 278 279 277 286 299 308 299 288 286 148 142 181 139 165 161 152 153 118 153 160 164 148 167 204 179 201 257 132 146 164 175 182 158
312 314 319 317 311 307 307 304 296 296 300 303 280 270 272 275 278 270 286 291 287 279 289 238 141 288 129 182 184 147 136 178 124 143 164 156 153 177 161 203 229 147 115 194 105 104 135
314 315 318 319 314 313 309 299 294 295 300 302 290 282 306 268 281 286 281 255 227 254 289 291 337 117 110 120 228 128 125 154 142 170 227 157 170 166 214 119 59 38 40 110 128 131 129